STARLINK-2154

decayed
NORAD ID: 47741 Int'l Des: 2021-017 Owner: SPXS Country: US Constellation: starlink
LEOCIRCULAR

关于 STARLINK-2154

正在加载描述...

高度历史

Altitude vs Time

uPlot chart will show altitude changes over time

两行轨道根数

1 47741U 21017V 24136.28335378 .17580417 12457-4 16994-2 0 9996
2 47741 53.0223 285.1525 0009822 354.0233 80.3397 16.37437916177450
Epoch: May 15, 2024 • Age: 11718 hours

当前状态

Position data unavailable
发射日期 Mar 4, 2021
运行时间 4.5 years
衰减日期 May 15, 2024
类型 internet

技术详情

分类 Payload
质量 260.00 kg
干质量 248.00 kg
总质量 260.00 kg
长度 0.20 m
直径 2.80 m
跨度 9.00 m
形状 Box + pan
制造商 SPXS
平台类型 Starlink
阶段状态 Unknown Transfer Status
所有者/国家 SPXS/US

大型星座

Loading constellations...